#timestamp,LO_Frequency,Hit 
1501398015.7,286046985.5,N
1501398035.5,286046988.2,N
1501398055.4,286046985.8,N
1501398075.2,286046985.0,N
1501398095.0,286046983.9,N
1501398095.9,286046983.9,N
1501398115.8,286046988.1,N
1501398135.6,286046988.1,N
1501398155.4,286046986.6,N
1501398175.3,286046985.3,N
1501398195.1,286046989.9,N
1501398196.0,286046989.9,N
1501398215.8,286046987.3,N
1501398235.7,286046989.1,N
1501398255.5,286046988.9,N
1501398275.3,286046991.1,N
1501398295.2,286046989.0,N
1501398315.9,286046989.4,N
1501398335.7,286046987.3,N
1501398355.6,286046989.2,N
1501398375.4,286046992.5,N
1501398395.2,286046994.8,N
1501398415.0,286046988.5,N
1501398416.0,286046988.5,N
1501398435.8,286046988.6,N
1501398455.6,286046987.3,N
1501398475.4,286046987.8,N
1501398495.3,286046982.2,N
1501398515.1,286046979.2,N
1501398535.8,286046980.1,N
1501398555.7,286046978.4,N
1501398575.5,286046977.2,N
1501398595.5,286046974.4,N
1501398615.4,286046977.0,N
1501398635.2,286046975.8,N
1501398655.0,286046978.6,N
1501398655.9,286046978.6,N
1501398675.8,286046980.1,N
1501398695.6,286046978.0,N
1501398715.4,286046978.3,N
1501398735.3,286046975.7,N
1501398755.1,286046980.2,N
1501398756.0,286046980.2,N
1501398775.8,286046980.4,N
1501398795.7,286046981.3,N
1501398815.5,286046982.8,N
1501398835.3,286046985.1,N
1501398855.1,286046984.1,N
1501398875.9,286046982.7,N
1501398895.7,286046984.7,N
1501398915.5,286046985.1,N
1501398935.4,286046982.8,N
1501398955.2,286046983.0,N
1501398975.0,286046982.3,N
1501398975.9,286046982.3,N
1501398995.8,286046980.5,N
1501399015.6,286046978.5,N
1501399035.4,286046978.0,N
1501399055.3,286046978.2,N
1501399075.1,286046978.4,N
1501399076.0,286046978.4,N
1501399095.8,286046974.8,N
1501399115.7,286046973.5,N
1501399135.5,286046968.2,N
1501399155.3,286046966.9,N
1501399175.2,286046966.4,N
1501399195.9,286046970.2,N
1501399215.7,286046972.1,N
1501399235.5,286046969.4,N
1501399255.4,286046970.5,N
1501399275.2,286046971.6,N
1501399295.0,286046971.1,N
1501399295.9,286046971.1,N
1501399315.8,286046972.5,N
1501399335.6,286046972.5,N
1501399355.4,286046973.6,N
1501399375.3,286046971.6,N
1501399395.1,286046974.6,N
1501399415.8,286046976.8,N
1501399435.7,286046976.5,N
1501399455.5,286046979.6,N
1501399475.3,286046980.4,N
1501399495.6,286046976.6,N
1501399515.5,286046973.8,N
1501399535.3,286046971.3,N
1501399555.1,286046970.2,N
1501399575.9,286046964.3,N
1501399595.7,286046958.7,Y
1501399615.6,286046954.8,Y
1501399635.4,286046945.5,Y
1501399655.2,286046942.4,Y
1501399675.1,286046937.4,Y
1501399676.0,286046937.4,Y
1501399695.9,286046933.3,Y
1501399715.7,286046928.5,Y
1501399735.5,286046926.7,Y
1501399755.4,286046928.9,Y
1501399775.2,286046923.0,Y
1501399795.0,286046922.1,Y
1501399796.0,286046922.1,Y
1501399815.8,286046917.7,Y
1501399835.6,286046914.3,Y
1501399855.5,286046912.4,Y
1501399875.3,286046911.5,Y
1501399895.2,286046909.0,Y
1501399915.9,286046907.3,Y
1501399935.8,286046910.1,Y
1501399955.6,286046906.7,Y
1501399975.4,286046902.8,Y
1501399995.3,286046901.1,Y
1501400015.1,286046903.4,Y
1501400035.9,286046903.3,Y
1501400055.7,286046906.4,Y
1501400075.5,286046904.1,Y
1501400095.4,286046908.3,Y
1501400115.2,286046906.5,Y
1501400135.1,286046906.2,Y
1501400136.0,286046906.2,Y
1501400155.8,286046910.4,Y
1501400175.7,286046914.1,Y
1501400195.5,286046918.6,Y
1501400215.3,286046922.2,Y
1501400235.2,286046922.6,Y
1501400255.0,286046922.3,Y
1501400255.9,286046922.3,Y
1501400275.8,286046923.6,Y
1501400295.6,286046927.5,N
1501400315.4,286046923.4,Y
1501400335.3,286046924.9,Y
1501400355.1,286046926.1,N
1501400375.9,286046930.2,N
1501400395.7,286046928.9,N
1501400415.5,286046926.2,N
1501400435.3,286046930.3,N
1501400455.2,286046929.0,N
1501400475.9,286046924.6,N
1501400495.7,286046924.8,N
1501400515.6,286046924.1,N
1501400535.4,286046923.8,N
1501400555.2,286046920.1,Y
1501400575.1,286046926.7,N
1501400576.0,286046926.7,N
1501400595.8,286046923.3,N
1501400615.6,286046923.7,N
1501400635.5,286046921.8,N
1501400655.3,286046921.1,N
1501400675.1,286046918.3,N
1501400695.9,286046919.6,N
1501400715.7,286046915.3,Y
1501400735.5,286046920.1,N
1501400755.4,286046918.1,N
1501400775.2,286046921.5,N
1501400795.0,286046922.0,N
1501400795.9,286046922.0,N
1501400815.8,286046925.7,N
1501400835.6,286046924.9,N
1501400855.4,286046927.3,N
1501400875.3,286046927.7,N
1501400895.1,286046929.3,N
1501400896.0,286046929.3,N
1501400915.8,286046933.6,N
1501400935.6,286046938.6,N
1501400955.5,286046941.8,N
1501400975.3,286046944.6,N
1501400995.1,286046945.4,N
1501401015.9,286046947.4,N
1501401035.7,286046947.0,N
1501401055.5,286046947.4,N
1501401075.4,286046950.0,N
1501401095.2,286046944.5,N
1501401115.0,286046944.5,N
1501401115.9,286046944.5,N
1501401135.8,286046949.7,N
1501401155.6,286046951.4,N
1501401175.4,286046949.7,N
1501401195.3,286046947.4,N
1501401215.1,286046946.8,N
1501401216.0,286046946.8,N
1501401235.8,286046944.0,N
1501401255.7,286046939.3,N
1501401275.5,286046936.4,N
1501401295.3,286046938.5,N
1501401315.2,286046940.0,N
1501401335.9,286046938.6,N
1501401355.7,286046938.3,N
1501401375.6,286046940.7,N
1501401395.4,286046937.8,N
1501401415.2,286046930.9,N
1501401435.0,286046932.4,N
1501401435.9,286046932.4,N
1501401455.8,286046930.0,N
1501401475.6,286046926.5,N
1501401495.4,286046924.3,N
1501401515.3,286046920.3,N
1501401535.1,286046916.5,N
1501401536.0,286046916.5,N
1501401555.8,286046919.5,N
1501401575.7,286046924.1,N
1501401595.5,286046922.2,N
